Regional Weather Roundup
Issued by NWS

Home | Current Version | Previous Version | Text Only | Print | Product List | Glossary Off
Versions: 1 2 3 4 5 6 7 8 9 10 11 12 13 14 15 16 17 18 19 20 21 22 23 24 25 26 27 28 29 30 31 32 33 34 35 36 37 38 39 40 41 42 43 44 45 46 47 48 49 50

393
ASUS43 KLMK 261202
RWRKY
KENTUCKY REGIONAL WEATHER ROUNDUP
NATIONAL WEATHER SERVICE LOUISVILLE KY
800 AM EDT THU MAY 26 2016

NOTE "FAIR" INDICATES FEW OR NO CLOUDS BELOW 12,000 FEET
WITH NO SIGNIFICANT WEATHER AND/OR OBSTRUCTIONS TO VISIBILITY.

KYZ001>023-026-027-061>063-070>075-261300-
WESTERN AND SOUTH CENTRAL KENTUCKY

CITY           SKY/WX    TMP DP  RH WIND       PRES   REMARKS
PADUCAH        MOSUNNY   70  63  78 S6        30.02R
HENDERSON      SUNNY     66  61  82 S6        30.02S
OWENSBORO      SUNNY     68  65  90 S7        30.05S
HOPKINSVILLE   SUNNY     65  64  94 S7        30.07S
BOWLING GREEN  MOSUNNY   68  63  84 S3        30.09S
GLASGOW        NOT AVBL
$$

KYZ024-025-028>034-038-045-046-053-261300-
NORTH CENTRAL KENTUCKY

CITY           SKY/WX    TMP DP  RH WIND       PRES   REMARKS
LOUISVILLE/SDF PTSUNNY   69  63  81 SE9       30.08R
LOUISVILLE/LOU CLOUDY    69  62  78 SE7       30.09R
FORT KNOX      NOT AVBL
$$

KYZ035>037-039>044-047>052-055>060-089>105-261300-
NORTHEAST KENTUCKY

CITY           SKY/WX    TMP DP  RH WIND       PRES   REMARKS
LEXINGTON      HVY RAIN  65  62  90 S12       30.15R FOG
COVINGTON      CLOUDY    67  63  87 S8        30.09R
FRANKFORT      CLOUDY    67  62  84 S8        30.11R
$$

KYZ054-064>069-076>088-106>120-261300-
SOUTHEAST KENTUCKY

CITY           SKY/WX    TMP DP  RH WIND       PRES   REMARKS
JACKSON        LGT RAIN  64  61  90 MISG      30.19R FOG
LONDON         LGT RAIN  63  62  97 S3        30.20S
SOMERSET       NOT AVBL
MIDDLESBORO    NOT AVBL
MONTICELLO     LGT RAIN  65  62  90 SE8       30.20R
$$





USA.gov is the U.S. government's official web portal to all federal, state and local government web resources and services.